| time (UTC) | temp C | wind direction | speed KPH | gust KPH | rain 1hr cm | rain 24hr cm | rain mn cm | humidity % | barometer mb |
| 20260505153016 | 25 | 218 | 3.2 | 11.3 | 0.00 | 0.00 | 0.00 | 44 | 1010.7 |
| 20260505151534 | 25 | 174 | 6.4 | 12.9 | 0.00 | 0.00 | 0.00 | 45 | 1010.6 |
| 20260505140321 | 22 | 216 | 4.8 | 16.1 | 0.00 | 0.00 | 0.00 | 53 | 1011.6 |
| 20260505124543 | 19 | 221 | 8.0 | 16.1 | 0.00 | 0.00 | 0.00 | 59 | 1011.3 |
| 20260505123052 | 19 | 133 | 3.2 | 12.9 | 0.00 | 0.00 | 0.00 | 60 | 1011.2 |
| 20260505121507 | 18 | 255 | 4.8 | 11.3 | 0.00 | 0.00 | 0.00 | 61 | 1011.3 |
| 20260505120302 | 18 | 128 | 3.2 | 16.1 | 0.00 | 0.00 | 0.00 | 63 | 1011.2 |
| 20260505120100 | 18 | 152 | 1.6 | 16.1 | 0.00 | 0.00 | 0.00 | 63 | 1011.2 |
| 20260505114505 | 17 | 192 | 1.6 | 12.9 | 0.00 | 0.00 | 0.00 | 66 | 1011.3 |
| 20260505113024 | 16 | 202 | 3.2 | 8.0 | 0.00 | 0.00 | 0.00 | 68 | 1011.3 |
| 20260505111538 | 15 | 276 | 0.0 | 4.8 | 0.00 | 0.00 | 0.00 | 70 | 1011.4 |
| 20260505101554 | 13 | 245 | 0.0 | 1.6 | 0.00 | 0.00 | 0.00 | 74 | 1011.3 |
| 20260505100340 | 13 | 239 | 0.0 | 3.2 | 0.00 | 0.00 | 0.00 | 74 | 1011.1 |
| 20260505100044 | 13 | 198 | 0.0 | 1.6 | 0.00 | 0.00 | 0.00 | 74 | 1010.9 |
| 20260505094552 | 13 | 214 | 0.0 | 3.2 | 0.00 | 0.00 | 0.00 | 73 | 1010.5 |
| 20260505093058 | 13 | 223 | 0.0 | 6.4 | 0.00 | 0.00 | 0.00 | 73 | 1010.2 |
| 20260505091511 | 13 | 231 | 0.0 | 3.2 | 0.00 | 0.00 | 0.00 | 73 | 1010.2 |
| 20260505090022 | 13 | 221 | 0.0 | 6.4 | 0.00 | 0.00 | 0.00 | 73 | 1010.3 |
| 20260505084527 | 13 | 285 | 0.0 | 4.8 | 0.00 | 0.00 | 0.00 | 72 | 1010.3 |
| 20260505083035 | 13 | 156 | 0.0 | 6.4 | 0.00 | 0.00 | 0.00 | 71 | 1010.3 |
| 20260505081605 | 13 | 224 | 0.0 | 6.4 | 0.00 | 0.00 | 0.00 | 71 | 1010.3 |
| 20260505080310 | 14 | 212 | 1.6 | 4.8 | 0.00 | 0.00 | 0.00 | 71 | 1010.4 |
| 20260505080058 | 13 | 196 | 0.0 | 6.4 | 0.00 | 0.00 | 0.00 | 71 | 1010.3 |
| 20260505074505 | 13 | 207 | 0.0 | 4.8 | 0.00 | 0.00 | 0.00 | 71 | 1010.3 |
| 20260505073023 | 13 | 219 | 0.0 | 3.2 | 0.00 | 0.00 | 0.00 | 70 | 1010.3 |
| 20260505071536 | 13 | 193 | 0.0 | 3.2 | 0.00 | 0.00 | 0.00 | 70 | 1010.2 |
| 20260505070059 | 13 | 145 | 0.0 | 3.2 | 0.00 | 0.00 | 0.00 | 70 | 1010.1 |
| 20260505064559 | 13 | 225 | 0.0 | 1.6 | 0.00 | 0.00 | 0.00 | 69 | 1010.3 |
| 20260505063101 | 14 | 223 | 0.0 | 1.6 | 0.00 | 0.00 | 0.00 | 68 | 1010.2 |
| 20260505061519 | 15 | 170 | 0.0 | 4.8 | 0.00 | 0.00 | 0.00 | 66 | 1010.3 |
| 20260505060318 | 15 | 201 | 1.6 | 4.8 | 0.00 | 0.00 | 0.00 | 66 | 1010.3 |
| 20260505060040 | 15 | 174 | 0.0 | 6.4 | 0.00 | 0.00 | 0.00 | 65 | 1010.3 |
| 20260505054533 | 15 | 157 | 0.0 | 8.0 | 0.00 | 0.00 | 0.00 | 64 | 1010.3 |
| 20260505053039 | 15 | 145 | 0.0 | 8.0 | 0.00 | 0.00 | 0.00 | 64 | 1010.4 |
| 20260505051606 | 15 | 188 | 1.6 | 8.0 | 0.00 | 0.00 | 0.00 | 63 | 1010.4 |
| 20260505041505 | 15 | 226 | 3.2 | 8.0 | 0.00 | 0.00 | 0.00 | 62 | 1010.7 |
| 20260505040319 | 16 | 72 | 1.6 | 8.0 | 0.00 | 0.00 | 0.00 | 61 | 1010.9 |
| 20260505040004 | 15 | 195 | 1.6 | 8.0 | 0.00 | 0.00 | 0.00 | 61 | 1010.9 |
| 20260505034527 | 16 | 186 | 1.6 | 9.7 | 0.00 | 0.00 | 0.00 | 60 | 1010.9 |
| 20260505033048 | 16 | 143 | 1.6 | 8.0 | 0.00 | 0.00 | 0.00 | 60 | 1010.8 |
| 20260505031558 | 16 | 206 | 1.6 | 9.7 | 0.00 | 0.00 | 0.00 | 59 | 1011.0 |
| 20260505030016 | 16 | 210 | 3.2 | 9.7 | 0.00 | 0.00 | 0.00 | 57 | 1011.1 |
| 20260505024532 | 16 | 166 | 4.8 | 17.7 | 0.00 | 0.00 | 0.00 | 56 | 1011.1 |
| 20260505023041 | 16 | 155 | 3.2 | 12.9 | 0.00 | 0.00 | 0.00 | 55 | 1011.2 |
| 20260505021559 | 16 | 153 | 3.2 | 14.5 | 0.00 | 0.00 | 0.00 | 54 | 1011.3 |
| 20260505020306 | 17 | 158 | 4.8 | 9.7 | 0.00 | 0.00 | 0.00 | 53 | 1011.3 |
| 20260505020059 | 17 | 99 | 3.2 | 17.7 | 0.00 | 0.00 | 0.00 | 53 | 1011.2 |
| 20260505014513 | 17 | 197 | 1.6 | 9.7 | 0.00 | 0.00 | 0.00 | 53 | 1011.1 |
| 20260505013026 | 17 | 240 | 4.8 | 11.3 | 0.00 | 0.00 | 0.00 | 51 | 1011.1 |
| 20260505011535 | 17 | 139 | 6.4 | 12.9 | 0.00 | 0.00 | 0.00 | 50 | 1010.9 |
| 20260505010043 | 18 | 212 | 4.8 | 12.9 | 0.00 | 0.00 | 0.00 | 51 | 1010.7 |
| 20260505004600 | 18 | 131 | 6.4 | 12.9 | 0.00 | 0.00 | 0.00 | 46 | 1010.4 |
| 20260505003015 | 19 | 207 | 1.6 | 8.0 | 0.00 | 0.00 | 0.00 | 39 | 1010.3 |
| 20260505001527 | 20 | 167 | 3.2 | 8.0 | 0.00 | 0.00 | 0.00 | 38 | 1010.0 |
| 20260505000310 | 20 | 198 | 1.6 | 11.3 | 0.00 | 0.00 | 0.00 | 38 | 1009.8 |
| 20260505000024 | 20 | 161 | 1.6 | 11.3 | 0.00 | 0.00 | 0.00 | 37 | 1009.7 |
| 20260504234525 | 20 | 207 | 0.0 | 9.7 | 0.00 | 0.00 | 0.00 | 37 | 1009.6 |
| 20260504233043 | 21 | 217 | 4.8 | 14.5 | 0.00 | 0.00 | 0.00 | 36 | 1009.3 |
| 20260504231559 | 21 | 150 | 4.8 | 14.5 | 0.00 | 0.00 | 0.00 | 34 | 1009.3 |
| 20260504230018 | 22 | 266 | 4.8 | 12.9 | 0.00 | 0.00 | 0.00 | 33 | 1009.1 |
| 20260504224527 | 22 | 150 | 4.8 | 12.9 | 0.00 | 0.00 | 0.00 | 33 | 1009.0 |
| 20260504223041 | 22 | 181 | 8.0 | 24.1 | 0.00 | 0.00 | 0.00 | 32 | 1009.1 |
| 20260504221533 | 23 | 194 | 4.8 | 14.5 | 0.00 | 0.00 | 0.00 | 31 | 1009.2 |
| 20260504220305 | 23 | 270 | 4.8 | 11.3 | 0.00 | 0.00 | 0.00 | 31 | 1009.3 |
| 20260504220043 | 23 | 194 | 4.8 | 12.9 | 0.00 | 0.00 | 0.00 | 31 | 1009.2 |
| 20260504214616 | 23 | 137 | 4.8 | 16.1 | 0.00 | 0.00 | 0.00 | 31 | 1009.4 |
| 20260504213022 | 23 | 181 | 4.8 | 14.5 | 0.00 | 0.00 | 0.00 | 31 | 1009.5 |
| 20260504211534 | 23 | 205 | 4.8 | 19.3 | 0.00 | 0.00 | 0.00 | 31 | 1009.5 |
| 20260504210049 | 23 | 247 | 8.0 | 16.1 | 0.00 | 0.00 | 0.00 | 30 | 1009.5 |
| 20260504204558 | 23 | 252 | 8.0 | 20.9 | 0.00 | 0.00 | 0.00 | 30 | 1009.6 |
| 20260504203009 | 23 | 174 | 6.4 | 20.9 | 0.00 | 0.00 | 0.00 | 31 | 1009.6 |
| 20260504201528 | 23 | 115 | 4.8 | 14.5 | 0.00 | 0.00 | 0.00 | 31 | 1009.6 |
| 20260504200319 | 23 | 272 | 4.8 | 22.5 | 0.00 | 0.00 | 0.00 | 32 | 1009.7 |
| 20260504200018 | 23 | 115 | 6.4 | 22.5 | 0.00 | 0.00 | 0.00 | 32 | 1009.7 |
| 20260504194537 | 22 | 187 | 6.4 | 20.9 | 0.00 | 0.00 | 0.00 | 33 | 1009.8 |
| 20260504193118 | 22 | 209 | 4.8 | 20.9 | 0.00 | 0.00 | 0.00 | 32 | 1009.9 |
| 20260504191504 | 22 | 192 | 6.4 | 17.7 | 0.00 | 0.00 | 0.00 | 32 | 1010.1 |
| 20260504190006 | 22 | 290 | 4.8 | 20.9 | 0.00 | 0.00 | 0.00 | 32 | 1010.4 |
| 20260504184530 | 22 | 210 | 3.2 | 19.3 | 0.00 | 0.00 | 0.00 | 32 | 1010.6 |
| 20260504183036 | 22 | 214 | 6.4 | 12.9 | 0.00 | 0.00 | 0.00 | 33 | 1010.8 |
| 20260504181548 | 22 | 186 | 8.0 | 17.7 | 0.00 | 0.00 | 0.00 | 32 | 1011.1 |
| 20260504180319 | 21 | 175 | 9.7 | 19.3 | 0.00 | 0.00 | 0.00 | 33 | 1011.2 |
| 20260504180052 | 21 | 185 | 8.0 | 19.3 | 0.00 | 0.00 | 0.00 | 33 | 1011.3 |
| 20260504174504 | 21 | 203 | 4.8 | 17.7 | 0.00 | 0.00 | 0.00 | 32 | 1011.4 |
| 20260504173002 | 21 | 210 | 11.3 | 24.1 | 0.00 | 0.00 | 0.00 | 34 | 1011.6 |
| 20260504171508 | 21 | 105 | 9.7 | 20.9 | 0.00 | 0.00 | 0.00 | 34 | 1011.6 |
| 20260504160317 | 20 | 243 | 8.0 | 25.7 | 0.00 | 0.00 | 0.00 | 35 | 1012.8 |
| 20260504160111 | 20 | 181 | 12.9 | 25.7 | 0.00 | 0.00 | 0.00 | 35 | 1012.8 |